Regional Weather Roundup
Issued by NWS Charleston, SC

Current Version | Previous Version | Graphics & Text | Print | Product List | Glossary On
Versions: 1 2 3 4 5 6 7 8 9 10 11 12 13 14 15 16 17 18 19 20 21 22 23 24 25 26 27 28 29 30 31 32 33 34 35 36 37 38 39 40 41 42 43 44 45 46 47 48 49 50
000
ASUS42 KCHS 211812
RWRCHS

REGIONAL WEATHER ROUNDUP
NATIONAL WEATHER SERVICE CHARLESTON SC
100 PM EST SAT JAN 21 2017

NOTE: "FAIR" INDICATES FEW OR NO CLOUDS BELOW 12,000 FEET WITH NO
SIGNIFICANT WEATHER AND/OR OBSTRUCTIONS TO VISIBILITY.

NOT ALL STATIONS ARE QUALITY CONTROLLED. USE DATA WITH CAUTION...
ESPECIALLY DEWPOINT OBSERVATIONS.

SCZ027-030-031-034>040-042>050-211900-
...SOUTHEAST SOUTH CAROLINA...

CITY           SKY/WX    TMP DP  RH WIND       PRES   REMARKS
N CHARLESTON   CLOUDY    69  66  90 S8        29.81F
6HR MIN TEMP:  65; 6HR MAX TEMP:  69; 6HR PCP:  0.51;

WATERFRONT PRK   N/A     63  63 100 VRB3      29.83F
MOUNT PLEASANT MOCLDY    66  66 100 S8        29.82F
JOHNS ISLAND   CLOUDY    64  64 100 S10       29.84F FOG
PINOPOLIS        N/A     66  66 100 VRB3      29.74
MONCKS CORNER  CLOUDY    66  64  94 S5        29.81F FOG
SUMMERVILLE    CLOUDY   N/A N/A N/A CALM      29.81F
BEAUFORT MCAS  CLOUDY    68  66  93 S7        29.82F FOG
6HR MIN TEMP:  65; 6HR MAX TEMP:  68; 6HR PCP:  0.32;

BEAUFORT ARPT  NOT AVBL
HILTON HEAD IS CLOUDY    68  66  94 S9        29.83F FOG
WALTERBORO     CLOUDY    68  66  94 S7        29.81F
ALLENDALE      CLOUDY    70  66  88 S10       29.77F

...SOUTHERN MIDLANDS AND PEE DEE...

CITY           SKY/WX    TMP DP  RH WIND       PRES   REMARKS
GEORGETOWN     RAIN      63  63 100 E5        29.83F VSB 1/2
KINGSTREE      CLOUDY    64  63  94 E7        29.80F FOG
ORANGEBURG     PTSUNNY   68  65  90 S9        29.78F
6HR MIN TEMP:  61; 6HR MAX TEMP:  68; 6HR PCP:  0.18;

BARNWELL       CLOUDY    68  66  94 SE5       29.78F
AIKEN          HVY RAIN  63  63 100 S8        29.82F
MANNING        MOCLDY    64  63  94 SE3       29.79F
COLUMBIA       LGT RAIN  64  62  93 CALM      29.77F VSB 1/2
6HR MIN TEMP:  60; 6HR MAX TEMP:  64; 6HR PCP:  0.13;

SUMTER         CLOUDY    63  63 100 E6        29.77F FOG
6HR MIN TEMP:  57; 6HR MAX TEMP:  64; 6HR PCP:  0.10;

FLORENCE       LGT RAIN  66  64  93 SE6       29.80F
6HR MIN TEMP:  56; 6HR MAX TEMP:  69; 6HR PCP: TRACE;

MYRTLE BEACH   CLOUDY    64  61  88 S12       29.87F FOG
N MYRTLE BEACH CLOUDY    63  63 100 S7        29.85F FOG
6HR MIN TEMP:  56; 6HR MAX TEMP:  63; 6HR PCP: TRACE;


$$

GAZ063-065-086>088-099>101-113>116-118-119-134>141-150-211900-
...SOUTHEAST GEORGIA...

CITY           SKY/WX    TMP DP  RH WIND       PRES   REMARKS
SAVANNAH ARPT  PTSUNNY   75  66  73 S6        29.79F
6HR MIN TEMP:  66; 6HR MAX TEMP:  74; 6HR PCP:  0.01;

HUNTER AAF     MOSUNNY   74  72  93 SE7       29.77F
6HR MIN TEMP:  66; 6HR MAX TEMP:  74; 6HR PCP:  0.04;

FORT STEWART   CLOUDY    76  65  67 S6        29.75F
6HR MIN TEMP:  66; 6HR MAX TEMP:  76; 6HR PCP:  0.02;

STATESBORO     CLOUDY    73  70  91 S9        29.77F
SYLVANIA       CLOUDY   N/A N/A N/A S9        29.77F
CLAXTON        FAIR     N/A N/A N/A S6G16     29.77F

...CSRA...CENTRAL AND FAR SOUTHEAST GEORGIA...

CITY           SKY/WX    TMP DP  RH WIND       PRES   REMARKS
THOMSON        CLOUDY    64  63  94 SE7       29.78F
AUGUSTA-BUSH   LGT RAIN  65  62  90 E6        29.75F
6HR MIN TEMP:  62; 6HR MAX TEMP:  66; 6HR PCP:  0.55;

AUGUSTA-DANIEL LGT RAIN  63  59  87 E7        29.75F
SWAINSBORO     CLOUDY    72  68  88 S9G20     29.74F
VIDALIA        CLOUDY    75  70  83 S13       29.75F
EASTMAN        CLOUDY    75  58  55 SW14G24   29.74F
HAZLEHURST     MOCLDY    76  69  79 S12G25    29.74F
ALMA           CLOUDY    77  66  68 S18G25    29.76F
6HR MIN TEMP:  68; 6HR MAX TEMP:  77;

WAYCROSS       CLOUDY    82  70  67 SW16G23   29.77F
JESUP          FAIR      79  63  57 SW10G21   29.78F
BAXLEY         CLOUDY    77  70  78 S18       29.77F
BRUNSWICK      MOSUNNY   81  66  61 S13G23    29.81F
SAINT SIMONS   MOSUNNY   69  65  86 SE12      29.82F
6HR MIN TEMP:  65; 6HR MAX TEMP:  74;


$$

SCZ027-028-034-036>038-045-046-048>050-GAZ119-141-211900-
...LAKE AND SUPPLEMENTAL COASTAL OBSERVATIONS...

STATION/POSITION TIME  TEMP    WIND        PRES    WAVE   SWELL
                       AIR SEA DIR/SP/G            HT/PER HT/PER/DIR
                 (UTC) (F)     (DEG/KT/KT) (MB)    (FT/S) (FT/S/D)
WINYAH BAY       NOT AVBL
LAKE MURRAY      1720   62      CALM  /  2 1009.5F
ACE BASIN NERRS  1645   66        CALM     1012.0
FORT PULASKI     1748   69 58  210/  7/ 12 1010.1F
SAPELO ISLAND    1700   77     160/  9     1011.0

$$

ANZ835-935-AMZ111-154-330-350-352-354-370-450-454-472-211900-
...C-MAN AND BUOY OBSERVATIONS...

STATION/POSITION TIME  TEMP    WIND        PRES    WAVE   SWELL
                       AIR SEA DIR/SP/G            HT/PER HT/PER/DIR
                 (UTC) (F)     (DEG/KT/KT) (MB)    (FT/S) (FT/S/D)
BUOY 41004       1650   68 67  240/  8/  8 1012.0    3/ 4   2/210/ 4
BUOY 41008       1650   63 61  160/ 12/ 14 1011.2    2/12   2/ 30/12
FOLLY BEACH CMAN 1700   60     120/  5/  6 1011.8F
CAPERS NEARSHORE 1708   58 56  210/  2/  4 1011.1F
FRIPP NEARSHORE  1708   62 59  180/ 10/ 12 1010.7F


STATION/POSITION TIME  TEMP    WIND        PRES    WAVE   SWELL
                       AIR SEA DIR/SP/G            HT/PER HT/PER/DIR
                 (UTC) (F)     (DEG/KT/KT) (MB)    (FT/S) (FT/S/D)
5E ST. MARYS GA  1730      63                N/A     2/13   2/ 70/13
FRYING PAN BUOY  1750   69 70  110/ 14/ 16 1010.5F   2/11   2/ 90/11
BUOY 41025       1750   66 75  130/  6/  8 1011.4F   4/11   3/ 50/11
CAPE LOOKOUT NC  1700   63     120/  7/  8 1011.8F
BUOY 41002       1750   72 71   60/  2/  2 1012.8F   6/ 6   5/230/ 6
BUOY 41010       NOT AVBL
ST AUGUSTINE FL  1800   79 64  200/ 14/ 19 1010.9F


$$




USA.gov is the U.S. government's official web portal to all federal, state and local government web resources and services.